Location: ????????
(54.6123°N, 39.2099°E)
Time: 04:51:46
(UTC+00:00)

Cosmos 2278 - Pass Details

Date: 09 August 2025
Orbit: 838 x 850 km, 71.1° (Epoch: 14 December)

Event Time Altitude Azimuth Distance (km) Brightness Sun altitude
Rises 22:20:33 0° 287° (WNW) 3,401 6.9 -19.0°
Reaches altitude 10° 22:23:58 10° 307° (NW) 2,470 6.4 -18.8°
Maximum altitude 22:27:31 17° 347° (NNW) 2,041 6.5 -18.7°
Drops below altitude 10° 22:31:05 10° 26° (NNE) 2,477 7.4 -18.6°
Sets 22:34:31 0° 47° (NE) 3,416 7.9 -18.4°
